Simultaneous Nadir Overpasses (SNOs) Predictions

Prediction of SNOs between METOP-B and NOAA-19 Satellite Orbit:

Table of predicted SNOs for the next 14.0 days since TLE Epoch: 1/11/2015
Index Date (METOP-B) Time (METOP-B) Lat,Lon (METOP-B) SZA (METOP-B ) Date (NOAA-19) Time (NOAA-19) Lat,Lon (NOAA-19) SZA (NOAA-19 ) Distance(km) Time Diff (sec)
1 01/16/2015 10:09:42 -74.56,-156.01 84.50 01/16/2015 10:08:27 -74.53,-156.13 84.51 4.42 75
2 01/16/2015 11:00:23 74.51, 11.18 95.45 01/16/2015 10:59:31 74.52, 11.13 95.48 2.38 52
3 01/16/2015 11:51:05 -74.49, 178.47 84.57 01/16/2015 11:50:29 -74.49, 178.49 84.58 1.05 36
4 01/16/2015 12:41:45 74.49, -14.21 95.42 01/16/2015 12:41:33 74.47, -14.24 95.41 2.01 12
5 01/16/2015 13:32:27 -74.47, 153.08 84.61 01/16/2015 13:32:32 -74.48, 152.98 84.59 3.01 5
6 01/16/2015 14:23:08 74.42, -39.72 95.35 01/16/2015 14:23:35 74.42, -39.62 95.34 3.15 27
7 01/16/2015 15:13:49 -74.45, 127.69 84.64 01/16/2015 15:14:34 -74.43, 127.61 84.66 3.23 45
8 01/16/2015 16:04:30 74.40, -65.11 95.32 01/16/2015 16:05:38 74.42, -65.12 95.33 2.18 68
9 01/16/2015 16:55:20 -74.00, 101.18 85.07 01/16/2015 16:56:29 -74.05, 103.12 85.08 59.55 69




NCC Satellite Simultaneous Nadir Overpasses (SNOs) Prediction Service
